When you browse on this site, cookies collect data to enhance your experience and personalize the content and advertising you see.
Visit our Privacy Policy to learn more. By continuing to use the site, you agree to this use of cookies and data.
  • In United Kingdom
  • List of Countries
  • For 7 days
  • Water Temperature
  • Satellite Maps
  • Weather Map
  • Weather Widgets
  • user-avatar
    Login

    Hourly Weather Puntarenas

    Today, 22 April, Monday

    Time Temperature Precipitation Wind Pressure Humidity
    00:00 +29°C° 0 mm 2 mps 759 mmHg 70%
    01:00 +29°C° 0 mm 2 mps 759 mmHg 70%
    02:00 +29°C° 0 mm 2 mps 759 mmHg 70%
    03:00 +28°C° 0 mm 2 mps 758 mmHg 70%
    04:00 +28°C° 0 mm 2 mps 758 mmHg 70%
    05:00 +28°C° 0 mm 2 mps 758 mmHg 70%
    06:00 +29°C° 0 mm 2 mps 759 mmHg 68%
    07:00 +31°C° 0 mm 2 mps 759 mmHg 61%
    08:00 +34°C° 0 mm 2 mps 759 mmHg 54%
    09:00 +35°C° 0 mm 1 mps 759 mmHg 47%
    10:00 +37°C° 0 mm 2 mps 759 mmHg 45%
    11:00 +38°C° 0 mm 2 mps 759 mmHg 42%
    12:00 +39°C° 0 mm 3 mps 758 mmHg 40%
    13:00 +38°C° 0 mm 3 mps 758 mmHg 44%
    14:00 +37°C° 0 mm 3 mps 757 mmHg 48%
    15:00 +36°C° 0 mm 3 mps 757 mmHg 52%
    16:00 +34°C° 0.4 mm 2 mps 757 mmHg 57%
    17:00 +32°C° 0.4 mm 2 mps 757 mmHg 63%
    18:00 +31°C° 0.4 mm 2 mps 757 mmHg 68%
    19:00 +30°C° 0.3 mm 1 mps 758 mmHg 70%
    20:00 +30°C° 0.3 mm 1 mps 758 mmHg 72%
    21:00 +29°C° 0.3 mm 1 mps 759 mmHg 75%
    22:00 +29°C° 0 mm 1 mps 759 mmHg 74%
    23:00 +29°C° 0 mm 1 mps 759 mmHg 73%

    Tomorrow, 23 April, Tuesday

    Time Temperature Precipitation Wind Pressure Humidity
    00:00 +29°C° 0 mm 1 mps 759 mmHg 73%
    01:00 +28°C° 0 mm 1 mps 758 mmHg 73%
    02:00 +28°C° 0 mm 1 mps 758 mmHg 72%
    03:00 +28°C° 0 mm 1 mps 758 mmHg 72%
    04:00 +28°C° 0 mm 1 mps 758 mmHg 71%
    05:00 +28°C° 0 mm 1 mps 758 mmHg 71%
    06:00 +28°C° 0 mm 1 mps 758 mmHg 70%
    07:00 +30°C° 0 mm 1 mps 759 mmHg 62%
    08:00 +33°C° 0 mm 1 mps 759 mmHg 54%
    09:00 +35°C° 0 mm 1 mps 759 mmHg 46%
    10:00 +36°C° 0 mm 1 mps 759 mmHg 44%
    11:00 +38°C° 0 mm 2 mps 758 mmHg 42%
    12:00 +39°C° 0 mm 3 mps 758 mmHg 39%
    13:00 +38°C° 0 mm 3 mps 757 mmHg 44%
    14:00 +37°C° 0 mm 3 mps 756 mmHg 48%
    15:00 +36°C° 0 mm 4 mps 756 mmHg 53%
    16:00 +34°C° 0 mm 3 mps 756 mmHg 58%
    17:00 +32°C° 0 mm 2 mps 756 mmHg 64%
    18:00 +31°C° 0 mm 2 mps 756 mmHg 70%
    19:00 +30°C° 0.1 mm 1 mps 757 mmHg 72%
    20:00 +30°C° 0.1 mm 1 mps 758 mmHg 74%
    21:00 +29°C° 0.1 mm 1 mps 758 mmHg 77%
    22:00 +29°C° 0.2 mm 1 mps 758 mmHg 77%
    23:00 +29°C° 0.2 mm 1 mps 758 mmHg 77%

    Day after tomorrow, 24 April, Wednesday

    Time Temperature Precipitation Wind Pressure Humidity
    00:00 +29°C° 0.2 mm 1 mps 758 mmHg 77%
    01:00 +28°C° 0.1 mm 1 mps 758 mmHg 77%
    02:00 +28°C° 0.1 mm 1 mps 758 mmHg 77%
    03:00 +28°C° 0.1 mm 1 mps 757 mmHg 77%
    04:00 +27°C° 0 mm 1 mps 757 mmHg 76%
    05:00 +27°C° 0 mm 1 mps 758 mmHg 74%
    06:00 +27°C° 0 mm 1 mps 758 mmHg 73%
    07:00 +30°C° 0 mm 1 mps 759 mmHg 63%
    08:00 +33°C° 0 mm 1 mps 759 mmHg 54%
    09:00 +35°C° 0 mm 1 mps 759 mmHg 45%
    10:00 +36°C° 0 mm 1 mps 759 mmHg 43%
    11:00 +38°C° 0 mm 2 mps 758 mmHg 40%
    12:00 +38°C° 0 mm 3 mps 758 mmHg 38%
    13:00 +38°C° 0 mm 3 mps 757 mmHg 40%
    14:00 +37°C° 0 mm 3 mps 756 mmHg 43%
    15:00 +37°C° 0 mm 4 mps 756 mmHg 45%
    16:00 +35°C° 0 mm 3 mps 756 mmHg 52%
    17:00 +33°C° 0 mm 3 mps 756 mmHg 60%
    18:00 +31°C° 0 mm 2 mps 756 mmHg 67%
    19:00 +30°C° 0 mm 2 mps 757 mmHg 69%
    20:00 +30°C° 0 mm 1 mps 758 mmHg 70%
    21:00 +29°C° 0 mm 1 mps 758 mmHg 72%
    22:00 +29°C° 0 mm 1 mps 758 mmHg 72%
    23:00 +28°C° 0 mm 1 mps 758 mmHg 72%

    25 April, Thursday

    Time Temperature Precipitation Wind Pressure Humidity
    00:00 +28°C° 0 mm 1 mps 758 mmHg 71%
    01:00 +28°C° 0 mm 1 mps 758 mmHg 71%
    02:00 +28°C° 0 mm 1 mps 757 mmHg 70%
    03:00 +27°C° 0 mm 1 mps 757 mmHg 69%
    04:00 +27°C° 0 mm 1 mps 757 mmHg 67%
    05:00 +27°C° 0 mm 1 mps 758 mmHg 65%
    06:00 +27°C° 0 mm 1 mps 758 mmHg 63%
    07:00 +30°C° 0 mm 1 mps 759 mmHg 55%
    08:00 +33°C° 0 mm 1 mps 759 mmHg 48%
    09:00 +35°C° 0 mm 1 mps 760 mmHg 41%
    10:00 +36°C° 0 mm 1 mps 759 mmHg 40%
    11:00 +38°C° 0 mm 2 mps 759 mmHg 38%
    12:00 +38°C° 0 mm 3 mps 758 mmHg 37%
    13:00 +38°C° 0 mm 3 mps 758 mmHg 41%
    14:00 +37°C° 0 mm 3 mps 757 mmHg 44%
    15:00 +36°C° 0 mm 4 mps 756 mmHg 47%
    16:00 +35°C° 0 mm 3 mps 757 mmHg 55%
    17:00 +33°C° 0 mm 3 mps 757 mmHg 64%
    18:00 +31°C° 0 mm 2 mps 757 mmHg 72%
    19:00 +30°C° 0.1 mm 2 mps 758 mmHg 75%
    20:00 +30°C° 0.1 mm 1 mps 759 mmHg 77%
    21:00 +28°C° 0.1 mm 0 mps 759 mmHg 80%
    22:00 +27°C° 0.1 mm 0 mps 759 mmHg 81%
    23:00 +27°C° 0.1 mm 0 mps 759 mmHg 81%

    26 April, Friday

    Time Temperature Precipitation Wind Pressure Humidity
    00:00 +27°C° 0.1 mm 0 mps 759 mmHg 82%
    01:00 +27°C° 0.1 mm 0 mps 759 mmHg 82%
    02:00 +26°C° 0.1 mm 0 mps 758 mmHg 83%
    03:00 +26°C° 0.1 mm 0 mps 758 mmHg 83%
    04:00 +26°C° 0 mm 0 mps 758 mmHg 82%
    05:00 +28°C° 0 mm 1 mps 759 mmHg 80%
    06:00 +29°C° 0 mm 1 mps 759 mmHg 79%
    07:00 +31°C° 0 mm 1 mps 759 mmHg 69%
    08:00 +33°C° 0 mm 1 mps 759 mmHg 59%
    09:00 +35°C° 0 mm 1 mps 760 mmHg 48%
    10:00 +36°C° 0 mm 1 mps 759 mmHg 44%
    11:00 +38°C° 0 mm 2 mps 758 mmHg 39%
    12:00 +39°C° 0 mm 2 mps 758 mmHg 35%
    13:00 +39°C° 0 mm 3 mps 757 mmHg 38%
    14:00 +38°C° 0 mm 4 mps 757 mmHg 41%
    15:00 +37°C° 0 mm 4 mps 756 mmHg 44%
    16:00 +36°C° 0 mm 4 mps 756 mmHg 53%
    17:00 +34°C° 0 mm 3 mps 757 mmHg 63%
    18:00 +31°C° 0 mm 2 mps 757 mmHg 72%
    19:00 +30°C° 0.1 mm 2 mps 758 mmHg 75%
    20:00 +30°C° 0.1 mm 1 mps 758 mmHg 77%
    21:00 +29°C° 0.1 mm 1 mps 759 mmHg 79%
    22:00 +29°C° 0 mm 1 mps 759 mmHg 80%
    23:00 +27°C° 0 mm 0 mps 758 mmHg 81%

    27 April, Saturday

    Time Temperature Precipitation Wind Pressure Humidity
    00:00 +26°C° 0 mm 0 mps 758 mmHg 81%
    01:00 +26°C° 0 mm 0 mps 758 mmHg 81%
    02:00 +26°C° 0 mm 0 mps 757 mmHg 80%
    03:00 +26°C° 0 mm 0 mps 757 mmHg 79%
    04:00 +28°C° 0 mm 1 mps 758 mmHg 75%
    05:00 +28°C° 0 mm 1 mps 758 mmHg 70%
    06:00 +28°C° 0 mm 1 mps 758 mmHg 66%
    07:00 +31°C° 0 mm 1 mps 758 mmHg 57%
    08:00 +33°C° 0 mm 1 mps 759 mmHg 47%
    09:00 +36°C° 0 mm 1 mps 759 mmHg 38%
    10:00 +38°C° 0 mm 2 mps 758 mmHg 36%
    11:00 +38°C° 0 mm 2 mps 757 mmHg 34%
    12:00 +39°C° 0 mm 3 mps 757 mmHg 32%
    13:00 +38°C° 0 mm 3 mps 756 mmHg 36%
    14:00 +38°C° 0 mm 4 mps 755 mmHg 40%
    15:00 +37°C° 0 mm 4 mps 755 mmHg 43%
    16:00 +35°C° 0 mm 4 mps 755 mmHg 53%
    17:00 +33°C° 0 mm 3 mps 756 mmHg 62%
    18:00 +30°C° 0 mm 2 mps 756 mmHg 72%
    19:00 +30°C° 0 mm 2 mps 757 mmHg 74%
    20:00 +29°C° 0 mm 1 mps 757 mmHg 76%
    21:00 +27°C° 0 mm 0 mps 758 mmHg 78%
    22:00 +29°C° 0 mm 1 mps 758 mmHg 77%
    23:00 +28°C° 0 mm 1 mps 758 mmHg 77%
    Show more